| time (UTC) | temp C | wind direction | speed KPH | gust KPH | rain 1hr cm | rain 24hr cm | rain mn cm | humidity % | barometer mb |
| 20260507103016 | 18 | 233 | 6.4 | 9.7 | 0.00 | 0.10 | 0.05 | 46 | 1013.0 |
| 20260507102112 | 18 | 225 | 3.2 | 8.0 | 0.03 | 0.10 | 0.05 | 49 | 1013.4 |
| 20260507101109 | 18 | 241 | 1.6 | 4.8 | 0.03 | 0.10 | 0.05 | 50 | 1013.5 |
| 20260507100104 | 18 | 248 | 3.2 | 6.4 | 0.03 | 0.10 | 0.05 | 47 | 1013.4 |
| 20260507095100 | 18 | 248 | 4.8 | 8.0 | 0.03 | 0.10 | 0.05 | 47 | 1013.4 |
| 20260507094115 | 18 | 243 | 4.8 | 6.4 | 0.03 | 0.10 | 0.05 | 49 | 1013.4 |
| 20260507093051 | 18 | 237 | 6.4 | 9.7 | 0.03 | 0.10 | 0.05 | 50 | 1013.4 |
| 20260507092048 | 18 | 206 | 6.4 | 11.3 | 0.00 | 0.05 | 0.03 | 50 | 1013.3 |
| 20260507091043 | 18 | 203 | 1.6 | 4.8 | 0.00 | 0.05 | 0.03 | 51 | 1013.5 |
| 20260507090038 | 17 | 215 | 4.8 | 6.4 | 0.00 | 0.05 | 0.03 | 52 | 1013.6 |
| 20260507085034 | 17 | 243 | 3.2 | 6.4 | 0.00 | 0.05 | 0.03 | 55 | 1013.7 |
| 20260507084030 | 17 | 214 | 4.8 | 9.7 | 0.00 | 0.05 | 0.03 | 57 | 1013.8 |
| 20260507083026 | 16 | 241 | 1.6 | 9.7 | 0.00 | 0.05 | 0.03 | 60 | 1013.8 |
| 20260507082041 | 16 | 240 | 4.8 | 9.7 | 0.00 | 0.05 | 0.03 | 61 | 1013.7 |
| 20260507081017 | 16 | 203 | 3.2 | 8.0 | 0.00 | 0.05 | 0.03 | 61 | 1013.8 |
| 20260507080113 | 16 | 203 | 1.6 | 4.8 | 0.00 | 0.05 | 0.03 | 63 | 1014.0 |
| 20260507075108 | 16 | 203 | 1.6 | 6.4 | 0.00 | 0.05 | 0.03 | 63 | 1013.8 |
| 20260507074104 | 16 | 203 | 3.2 | 4.8 | 0.00 | 0.05 | 0.03 | 67 | 1013.9 |
| 20260507073120 | 15 | 203 | 1.6 | 3.2 | 0.00 | 0.05 | 0.03 | 70 | 1013.8 |
| 20260507072056 | 15 | 203 | 1.6 | 4.8 | 0.00 | 0.05 | 0.03 | 71 | 1013.9 |
| 20260507071052 | 15 | 225 | 0.0 | 4.8 | 0.00 | 0.05 | 0.03 | 73 | 1014.0 |
| 20260507070047 | 14 | 225 | 1.6 | 3.2 | 0.00 | 0.05 | 0.03 | 76 | 1013.8 |
| 20260507065043 | 13 | 225 | 3.2 | 6.4 | 0.00 | 0.05 | 0.03 | 80 | 1013.9 |
| 20260507064038 | 13 | 225 | 1.6 | 3.2 | 0.00 | 0.05 | 0.03 | 82 | 1013.8 |
| 20260507063035 | 12 | 253 | 1.6 | 3.2 | 0.00 | 0.05 | 0.03 | 85 | 1013.9 |
| 20260507062030 | 12 | 270 | 3.2 | 4.8 | 0.00 | 0.05 | 0.03 | 87 | 1013.6 |
| 20260507061026 | 12 | 270 | 1.6 | 3.2 | 0.00 | 0.05 | 0.03 | 90 | 1013.6 |
| 20260507060022 | 12 | 0.0 | 1.6 | 0.00 | 0.05 | 0.03 | 93 | 1013.7 | |
| 20260507055018 | 11 | 0.0 | 3.2 | 0.00 | 0.05 | 0.03 | 92 | 1013.6 | |
| 20260507054134 | 11 | 0.0 | 0.0 | 0.00 | 0.05 | 0.03 | 92 | 1013.8 | |
| 20260507053109 | 11 | 248 | 0.0 | 3.2 | 0.00 | 0.05 | 0.03 | 92 | 1013.7 |
| 20260507052105 | 11 | 0.0 | 0.0 | 0.00 | 0.05 | 0.03 | 92 | 1013.6 | |
| 20260507051101 | 11 | 240 | 1.6 | 3.2 | 0.00 | 0.05 | 0.03 | 92 | 1013.6 |
| 20260507050056 | 11 | 0.0 | 1.6 | 0.00 | 0.05 | 0.03 | 91 | 1013.5 | |
| 20260507045052 | 11 | 270 | 0.0 | 3.2 | 0.00 | 0.05 | 0.03 | 91 | 1013.5 |
| 20260507044048 | 11 | 270 | 1.6 | 3.2 | 0.00 | 0.05 | 0.03 | 91 | 1013.4 |
| 20260507043044 | 11 | 0.0 | 0.0 | 0.00 | 0.05 | 0.03 | 91 | 1013.2 | |
| 20260507042120 | 11 | 0.0 | 0.0 | 0.00 | 0.05 | 0.03 | 90 | 1013.2 | |
| 20260507041055 | 11 | 0.0 | 0.0 | 0.00 | 0.05 | 0.03 | 90 | 1013.2 | |
| 20260507040031 | 11 | 255 | 0.0 | 3.2 | 0.00 | 0.05 | 0.03 | 90 | 1013.2 |
| 20260507035027 | 11 | 0.0 | 1.6 | 0.00 | 0.05 | 0.03 | 89 | 1013.0 | |
| 20260507034023 | 11 | 270 | 0.0 | 3.2 | 0.00 | 0.05 | 0.03 | 88 | 1013.2 |
| 20260507033038 | 11 | 0.0 | 0.0 | 0.00 | 0.05 | 0.03 | 88 | 1013.1 | |
| 20260507032115 | 11 | 270 | 0.0 | 1.6 | 0.00 | 0.10 | 0.03 | 87 | 1013.2 |
| 20260507031111 | 11 | 270 | 1.6 | 4.8 | 0.00 | 0.10 | 0.03 | 87 | 1013.1 |
| 20260507030106 | 11 | 0.0 | 1.6 | 0.00 | 0.10 | 0.03 | 86 | 1013.1 | |
| 20260507025102 | 11 | 270 | 1.6 | 3.2 | 0.00 | 0.18 | 0.03 | 87 | 1013.1 |
| 20260507024058 | 11 | 264 | 1.6 | 6.4 | 0.00 | 0.20 | 0.03 | 88 | 1013.1 |
| 20260507023054 | 11 | 248 | 1.6 | 6.4 | 0.00 | 0.20 | 0.03 | 89 | 1013.0 |
| 20260507022049 | 11 | 248 | 0.0 | 3.2 | 0.00 | 0.20 | 0.03 | 90 | 1012.8 |
| 20260507021124 | 11 | 248 | 4.8 | 6.4 | 0.00 | 0.20 | 0.03 | 91 | 1012.7 |
| 20260507020040 | 11 | 241 | 0.0 | 3.2 | 0.00 | 0.20 | 0.03 | 91 | 1012.7 |
| 20260507015036 | 11 | 225 | 0.0 | 3.2 | 0.00 | 0.20 | 0.03 | 91 | 1012.5 |
| 20260507014032 | 11 | 248 | 1.6 | 3.2 | 0.00 | 0.20 | 0.03 | 91 | 1012.6 |
| 20260507013028 | 11 | 0.0 | 0.0 | 0.00 | 0.20 | 0.03 | 91 | 1012.5 | |
| 20260507012023 | 11 | 0.0 | 1.6 | 0.00 | 0.20 | 0.03 | 91 | 1012.6 | |
| 20260507011020 | 11 | 0.0 | 0.0 | 0.00 | 0.20 | 0.03 | 91 | 1012.5 | |
| 20260507010015 | 11 | 0.0 | 0.0 | 0.00 | 0.20 | 0.03 | 91 | 1012.5 | |
| 20260507005111 | 11 | 0.0 | 0.0 | 0.00 | 0.20 | 0.03 | 90 | 1012.5 | |
| 20260507004107 | 11 | 0.0 | 0.0 | 0.00 | 0.20 | 0.03 | 90 | 1012.5 | |
| 20260507003103 | 11 | 0.0 | 0.0 | 0.00 | 0.20 | 0.03 | 90 | 1012.5 | |
| 20260507002118 | 11 | 0.0 | 0.0 | 0.00 | 0.20 | 0.03 | 90 | 1012.6 | |
| 20260507001054 | 11 | 0.0 | 1.6 | 0.00 | 0.20 | 0.03 | 90 | 1012.8 | |
| 20260507000110 | 11 | 0.0 | 3.2 | 0.00 | 0.20 | 0.03 | 90 | 1012.9 | |
| 20260506235046 | 11 | 231 | 3.2 | 6.4 | 0.00 | 0.20 | 0.03 | 90 | 1013.0 |
| 20260506234041 | 11 | 0.0 | 0.0 | 0.00 | 0.20 | 0.03 | 89 | 1013.0 | |
| 20260506233037 | 11 | 0.0 | 1.6 | 0.00 | 0.20 | 0.03 | 88 | 1013.0 | |
| 20260506232032 | 11 | 225 | 3.2 | 6.4 | 0.03 | 0.20 | 0.03 | 87 | 1013.2 |
| 20260506231028 | 11 | 225 | 0.0 | 3.2 | 0.03 | 0.20 | 0.03 | 86 | 1013.1 |
| 20260506230104 | 11 | 0.0 | 0.0 | 0.03 | 0.20 | 0.03 | 85 | 1013.4 | |
| 20260506225020 | 12 | 0.0 | 1.6 | 0.03 | 0.20 | 0.03 | 84 | 1013.3 | |
| 20260506224016 | 12 | 0.0 | 0.0 | 0.03 | 0.20 | 0.03 | 83 | 1013.3 | |
| 20260506223111 | 12 | 225 | 1.6 | 3.2 | 0.03 | 0.20 | 0.03 | 82 | 1013.4 |
| 20260506222107 | 12 | 225 | 1.6 | 3.2 | 0.00 | 0.18 | 0.00 | 81 | 1013.4 |
| 20260506221143 | 12 | 0.0 | 1.6 | 0.00 | 0.18 | 0.00 | 78 | 1013.5 | |
| 20260506220058 | 12 | 225 | 0.0 | 3.2 | 0.00 | 0.18 | 0.00 | 75 | 1013.3 |
| 20260506215054 | 12 | 225 | 1.6 | 3.2 | 0.00 | 0.18 | 0.18 | 74 | 1013.4 |
| 20260506214049 | 12 | 225 | 1.6 | 4.8 | 0.00 | 0.18 | 0.18 | 73 | 1013.4 |
| 20260506213045 | 13 | 225 | 3.2 | 8.0 | 0.00 | 0.18 | 0.18 | 72 | 1013.3 |
| 20260506212040 | 13 | 203 | 1.6 | 4.8 | 0.00 | 0.18 | 0.18 | 71 | 1013.4 |
| 20260506211057 | 13 | 203 | 0.0 | 3.2 | 0.00 | 0.18 | 0.18 | 70 | 1013.2 |
| 20260506210032 | 13 | 203 | 1.6 | 3.2 | 0.00 | 0.18 | 0.18 | 68 | 1013.2 |
| 20260506205028 | 13 | 203 | 1.6 | 3.2 | 0.00 | 0.18 | 0.18 | 65 | 1013.3 |
| 20260506204024 | 14 | 203 | 4.8 | 6.4 | 0.00 | 0.18 | 0.18 | 65 | 1013.4 |
| 20260506203020 | 14 | 203 | 3.2 | 8.0 | 0.00 | 0.18 | 0.18 | 66 | 1013.6 |
| 20260506202017 | 14 | 203 | 4.8 | 11.3 | 0.00 | 0.18 | 0.18 | 67 | 1013.6 |
| 20260506201112 | 14 | 203 | 6.4 | 9.7 | 0.00 | 0.18 | 0.18 | 66 | 1013.6 |
| 20260506200108 | 14 | 203 | 8.0 | 12.9 | 0.00 | 0.18 | 0.18 | 67 | 1013.6 |
| 20260506195104 | 14 | 225 | 8.0 | 12.9 | 0.00 | 0.18 | 0.18 | 70 | 1013.5 |
| 20260506194100 | 14 | 225 | 4.8 | 6.4 | 0.00 | 0.18 | 0.18 | 70 | 1013.4 |
| 20260506193055 | 14 | 225 | 0.0 | 3.2 | 0.00 | 0.18 | 0.18 | 68 | 1013.3 |
| 20260506192051 | 15 | 225 | 3.2 | 4.8 | 0.00 | 0.18 | 0.18 | 67 | 1013.1 |
| 20260506191107 | 15 | 225 | 1.6 | 4.8 | 0.00 | 0.18 | 0.18 | 67 | 1013.1 |
| 20260506185038 | 15 | 225 | 1.6 | 3.2 | 0.00 | 0.18 | 0.18 | 67 | 1013.1 |
| 20260506184034 | 15 | 225 | 3.2 | 6.4 | 0.00 | 0.18 | 0.18 | 67 | 1013.0 |
| 20260506183030 | 15 | 225 | 3.2 | 6.4 | 0.00 | 0.18 | 0.18 | 66 | 1013.0 |
| 20260506182026 | 15 | 225 | 4.8 | 6.4 | 0.00 | 0.18 | 0.18 | 66 | 1012.9 |
| 20260506181021 | 15 | 225 | 3.2 | 11.3 | 0.00 | 0.18 | 0.18 | 65 | 1012.7 |
| 20260506180018 | 15 | 225 | 3.2 | 4.8 | 0.00 | 0.18 | 0.18 | 66 | 1012.6 |
| 20260506175134 | 15 | 225 | 3.2 | 6.4 | 0.00 | 0.18 | 0.18 | 66 | 1012.5 |
| 20260506174109 | 15 | 225 | 3.2 | 6.4 | 0.00 | 0.18 | 0.18 | 65 | 1012.6 |
| 20260506173105 | 16 | 225 | 4.8 | 6.4 | 0.00 | 0.18 | 0.18 | 65 | 1012.5 |
| 20260506172100 | 16 | 225 | 3.2 | 4.8 | 0.00 | 0.18 | 0.18 | 64 | 1012.4 |
| 20260506171057 | 16 | 225 | 4.8 | 8.0 | 0.00 | 0.18 | 0.18 | 64 | 1012.4 |
| 20260506170052 | 16 | 225 | 3.2 | 4.8 | 0.00 | 0.18 | 0.18 | 63 | 1012.5 |
| 20260506165047 | 16 | 225 | 0.0 | 3.2 | 0.00 | 0.18 | 0.18 | 63 | 1012.3 |
| 20260506164043 | 16 | 225 | 1.6 | 3.2 | 0.00 | 0.18 | 0.18 | 62 | 1012.2 |
| 20260506163119 | 16 | 225 | 1.6 | 4.8 | 0.00 | 0.18 | 0.18 | 62 | 1012.2 |
| 20260506162035 | 16 | 225 | 1.6 | 3.2 | 0.00 | 0.18 | 0.18 | 62 | 1012.7 |
| 20260506161030 | 16 | 225 | 1.6 | 3.2 | 0.00 | 0.18 | 0.18 | 61 | 1012.6 |
| 20260506160026 | 16 | 225 | 3.2 | 6.4 | 0.00 | 0.18 | 0.18 | 62 | 1012.6 |
| 20260506155022 | 16 | 225 | 3.2 | 6.4 | 0.00 | 0.18 | 0.18 | 63 | 1012.5 |
| 20260506154018 | 16 | 225 | 3.2 | 11.3 | 0.00 | 0.18 | 0.18 | 62 | 1012.6 |
| 20260506153134 | 16 | 225 | 8.0 | 12.9 | 0.00 | 0.18 | 0.18 | 62 | 1012.7 |
| 20260506152110 | 16 | 270 | 8.0 | 14.5 | 0.00 | 0.18 | 0.18 | 62 | 1012.8 |
| 20260506151105 | 17 | 270 | 11.3 | 19.3 | 0.00 | 0.18 | 0.18 | 61 | 1012.7 |
| 20260506145057 | 17 | 225 | 6.4 | 12.9 | 0.00 | 0.18 | 0.18 | 56 | 1012.7 |
| 20260506144053 | 17 | 225 | 6.4 | 12.9 | 0.00 | 0.20 | 0.18 | 57 | 1012.5 |
| 20260506143049 | 18 | 225 | 9.7 | 17.7 | 0.00 | 0.20 | 0.18 | 55 | 1012.3 |
| 20260506142045 | 18 | 208 | 9.7 | 17.7 | 0.00 | 0.20 | 0.18 | 55 | 1012.4 |
| 20260506141040 | 18 | 225 | 8.0 | 12.9 | 0.00 | 0.20 | 0.18 | 56 | 1012.2 |
| 20260506140036 | 18 | 225 | 8.0 | 12.9 | 0.00 | 0.20 | 0.18 | 57 | 1012.3 |
| 20260506135031 | 18 | 225 | 6.4 | 11.3 | 0.00 | 0.20 | 0.18 | 56 | 1012.3 |
| 20260506134027 | 18 | 225 | 3.2 | 12.9 | 0.00 | 0.20 | 0.18 | 57 | 1012.5 |
| 20260506133023 | 18 | 205 | 3.2 | 6.4 | 0.00 | 0.20 | 0.18 | 56 | 1012.6 |
| 20260506132018 | 17 | 199 | 3.2 | 4.8 | 0.00 | 0.20 | 0.18 | 57 | 1012.6 |
| 20260506131114 | 17 | 203 | 1.6 | 6.4 | 0.00 | 0.20 | 0.18 | 56 | 1012.8 |
| 20260506130110 | 17 | 180 | 3.2 | 6.4 | 0.00 | 0.20 | 0.18 | 57 | 1013.0 |
| 20260506125105 | 17 | 188 | 3.2 | 6.4 | 0.00 | 0.20 | 0.18 | 59 | 1013.0 |
| 20260506124101 | 17 | 180 | 4.8 | 8.0 | 0.00 | 0.20 | 0.18 | 59 | 1012.9 |
| 20260506123056 | 17 | 225 | 4.8 | 11.3 | 0.00 | 0.20 | 0.18 | 62 | 1013.0 |
| 20260506122112 | 17 | 225 | 6.4 | 11.3 | 0.03 | 0.20 | 0.18 | 62 | 1013.0 |
| 20260506121048 | 17 | 180 | 4.8 | 9.7 | 0.03 | 0.20 | 0.18 | 61 | 1012.9 |
| 20260506120044 | 16 | 180 | 4.8 | 8.0 | 0.03 | 0.20 | 0.18 | 61 | 1013.0 |
| 20260506115040 | 17 | 180 | 4.8 | 12.9 | 0.03 | 0.20 | 0.18 | 61 | 1012.9 |
| 20260506114035 | 17 | 180 | 6.4 | 12.9 | 0.03 | 0.20 | 0.18 | 61 | 1013.1 |
| 20260506113031 | 16 | 186 | 6.4 | 11.3 | 0.03 | 0.20 | 0.18 | 62 | 1013.1 |
| 20260506112027 | 16 | 225 | 3.2 | 6.4 | 0.00 | 0.18 | 0.15 | 62 | 1013.1 |
| 20260506111022 | 16 | 180 | 4.8 | 8.0 | 0.00 | 0.18 | 0.15 | 63 | 1013.1 |
| 20260506110019 | 16 | 180 | 3.2 | 6.4 | 0.00 | 0.18 | 0.15 | 65 | 1013.3 |
| 20260506105114 | 16 | 180 | 4.8 | 8.0 | 0.00 | 0.18 | 0.15 | 65 | 1013.4 |
| 20260506104110 | 16 | 180 | 4.8 | 6.4 | 0.00 | 0.18 | 0.15 | 69 | 1013.5 |